TimeCST,TemperatureF,Dew PointF,Humidity,Sea Level PressureIn,VisibilityMPH,Wind Direction,Wind SpeedMPH,Gust SpeedMPH,PrecipitationIn,Events,Conditions,WindDirDegrees,DateUTC
12:53 AM,30.0,19.9,66,30.22,10.0,WNW,3.5,-,N/A,,Clear,300,2013-01-18 06:53:00
1:53 AM,28.0,19.0,69,30.19,10.0,SW,5.8,-,N/A,,Clear,220,2013-01-18 07:53:00
2:53 AM,21.9,17.1,82,30.18,10.0,Calm,Calm,-,N/A,,Clear,0,2013-01-18 08:53:00
3:53 AM,24.1,19.0,81,30.15,10.0,West,4.6,-,N/A,,Clear,270,2013-01-18 09:53:00
4:53 AM,19.9,17.1,89,30.13,10.0,West,4.6,-,N/A,,Clear,280,2013-01-18 10:53:00
5:53 AM,17.1,15.1,92,30.13,10.0,NW,6.9,-,N/A,,Clear,320,2013-01-18 11:53:00
6:53 AM,18.0,15.1,88,30.14,10.0,NW,6.9,-,N/A,,Clear,320,2013-01-18 12:53:00
7:53 AM,18.0,14.0,84,30.14,10.0,NW,6.9,-,N/A,,Clear,320,2013-01-18 13:53:00
8:53 AM,23.0,17.1,78,30.15,10.0,NW,4.6,-,N/A,,Clear,310,2013-01-18 14:53:00
9:53 AM,33.1,21.0,61,30.12,10.0,WNW,12.7,-,N/A,,Clear,290,2013-01-18 15:53:00
10:53 AM,41.0,21.0,45,30.09,10.0,West,12.7,-,N/A,,Clear,280,2013-01-18 16:53:00
11:53 AM,48.0,21.0,34,30.06,10.0,West,13.8,-,N/A,,Clear,280,2013-01-18 17:53:00
12:53 PM,55.0,17.1,23,30.02,10.0,WNW,16.1,-,N/A,,Clear,290,2013-01-18 18:53:00
1:53 PM,57.9,18.0,21,30.01,10.0,WNW,10.4,-,N/A,,Clear,290,2013-01-18 19:53:00
2:53 PM,57.9,18.0,21,30.01,10.0,WNW,12.7,-,N/A,,Clear,300,2013-01-18 20:53:00
3:53 PM,57.9,18.0,21,30.00,10.0,West,10.4,-,N/A,,Clear,270,2013-01-18 21:53:00
4:53 PM,54.0,18.0,24,30.00,10.0,West,4.6,-,N/A,,Clear,280,2013-01-18 22:53:00
5:53 PM,46.0,17.1,31,30.03,10.0,WSW,6.9,-,N/A,,Clear,250,2013-01-18 23:53:00
6:53 PM,37.0,19.0,48,30.04,10.0,Calm,Calm,-,N/A,,Clear,0,2013-01-19 00:53:00
7:53 PM,30.0,19.0,64,30.05,10.0,Calm,Calm,-,N/A,,Clear,0,2013-01-19 01:53:00
8:53 PM,27.0,17.1,66,30.05,9.0,NW,3.5,-,N/A,,Clear,320,2013-01-19 02:53:00
9:53 PM,26.1,17.1,69,30.02,10.0,NW,5.8,-,N/A,,Clear,320,2013-01-19 03:53:00
10:53 PM,24.1,17.1,75,30.01,10.0,WNW,6.9,-,N/A,,Clear,290,2013-01-19 04:53:00
11:53 PM,28.0,19.9,72,29.99,10.0,West,6.9,-,N/A,,Clear,280,2013-01-19 05:53:00